Content
SEND FEEDBACK

Daily
Averages
Monthly
Summary
United States of America

ANN ARBOR, MICHIGAN


Home > North America > United States > Michigan
Elevation: 759 feet     Latitude: 42 17N     Longitude: 083 43W

WEATHER
 
SELECT A DAY
Number of Records: 208,114;   Date Range: 1/1/95 - 11/25/14
 
SHARE

PRINT THIS DATA

[ ← Previous Day ]
WEATHER ALMANAC - JUNE 13, 2013
[ Next Day → ]
[ °C ]   °F
Weather ElementAverageHighLow
Temperature67.2 °F78.1 °F (2:53 pm)62.1 °F (7:53 am)
Dewpoint26.7 °F66.2 °F (12:17 am) (7:00 pm)
Humidity70.6 %100 % (12:41 am)45 % (3:53 pm)
Barometer29.68 in29.93 in (11:53 pm)29.53 in (2:53 am)
Wind Speed10.8 mph33.4 mph (1:00 am)
Wind Gust42.6 mph (1:00 am)
Weather ElementAverage
Visibility6 mi
Wind DirectionSSE (173.7 °)

Weather ElementTotal
Precipitation7.56 in
Cooling Degree Days5.1 (Base 65)
Growing Degree Days20.1 (Base 50)
Averaged from 49 records on June 13, 2013
WEATHER CONDITIONS BREAKOUT
WIND DIRECTION BREAKOUT
WEATHER BY HOUR - JUNE 13, 2013
[ °C ]   °F
Local TimeTemperatureDewpointHumidityBarometerVisibilityWind DirectionWind SpeedGust SpeedPrecipitationEventsConditions
12:17 AM68.0 °F66.2 °F94 %29.65 in1.8 miENE (70°)9.2 mph18.4 mph0.05 inRain-ThunderstormThunderstorms and Rain
12:41 AM66.2 °F66.2 °F100 %29.61 in2.0 miNE (40°)10.4 mph16.1 mph0.12 inRain-ThunderstormThunderstorms and Rain
12:53 AM66.9 °F64.9 °F93 %29.67 in2.5 miWNW (290°)16.1 mph20.7 mph0.15 inRain-ThunderstormLight Thunderstorms and Rain
1:00 AM66.2 °F64.4 °F94 %29.72 in1.2 miWest (270°)33.4 mph42.6 mph0.22 inRain-ThunderstormHeavy Thunderstorms and Rain
1:04 AM66.2 °F64.4 °F94 %29.67 in0.5 miNorth (10°)17.3 mph42.6 mph0.59 inFog-Rain-ThunderstormHeavy Thunderstorms and Rain
1:15 AM66.2 °F64.4 °F94 %29.63 in1.0 miNorth (350°)16.1 mph25.3 mph0.90 inRain-ThunderstormHeavy Thunderstorms and Rain
1:19 AM66.2 °F64.4 °F94 %29.63 in2.0 miENE (60°)9.2 mph25.3 mph0.91 inRain-ThunderstormThunderstorms and Rain
1:22 AM66.2 °F64.4 °F94 %29.62 in4.0 miNE (50°)15.0 mph23.0 mph0.92 inRain-ThunderstormThunderstorms and Rain
1:42 AM66.2 °F0.0 °F29.62 in4.0 miEast (80°)12.7 mph0.98 inRainRain
1:53 AM66.0 °F0.0 °F29.61 in3.0 miENE (70°)3.5 mph1.02 inRainRain
2:10 AM64.4 °F0.0 °F29.60 in3.0 miEast (80°)6.9 mph0.05 inRain-ThunderstormLight Rain
2:25 AM64.4 °F0.0 °F29.56 in3.0 miEast (90°)12.7 mph0.07 inRainLight Rain
2:50 AM64.4 °F0.0 °F29.54 in4.0 miNE (40°)10.4 mph21.9 mph0.10 inRainLight Rain
2:53 AM64.9 °F0.0 °F29.53 in4.0 miNNE (30°)10.4 mph19.6 mph0.10 inRainLight Rain
3:04 AM64.4 °F0.0 °F29.56 in6.0 miNE (40°)9.2 mph0.00 inRainLight Rain
3:26 AM64.4 °F0.0 °F29.57 in1.8 miNE (50°)6.9 mph0.08 inRainHeavy Rain
3:38 AM64.4 °F0.0 °F29.57 in1.2 miNE (40°)6.9 mph0.22 inRainHeavy Rain
3:45 AM64.4 °F0.0 °F29.58 in1.8 miNE (40°)4.6 mph0.27 inRainHeavy Rain
3:53 AM64.9 °F0.0 °F29.56 in2.5 miNNE (20°)4.6 mph0.30 inRainRain
4:05 AM64.4 °F0.0 °F29.57 in3.0 miNNE (30°)6.9 mph0.03 inRainLight Rain
4:51 AM64.4 °F0.0 °F29.58 in4.0 miNNE (20°)6.9 mph0.08 inRainLight Rain
4:53 AM64.9 °F0.0 °F29.57 in4.0 miNNE (30°)9.2 mph0.09 inRainLight Rain
5:20 AM64.4 °F0.0 °F29.59 in6.0 miNNE (20°)11.5 mph0.06 inRainLight Rain
5:41 AM64.4 °F0.0 °F29.62 in7.0 miNorth (10°)8.1 mph0.07 inRainLight Rain
5:53 AM64.9 °F0.0 °F29.62 in7.0 miNorth (350°)6.9 mph0.07 inOvercast
5:59 AM64.4 °F0.0 °F29.64 in7.0 miNorth (350°)6.9 mphOvercast
6:04 AM64.4 °F0.0 °F29.64 in4.0 miNNW (340°)5.8 mph0.00 inRainLight Rain
6:15 AM64.4 °F0.0 °F29.65 in2.5 miNorth (10°)13.8 mph21.9 mph0.01 inRainLight Rain
6:23 AM64.4 °F0.0 °F29.65 in6.0 miNorth (10°)16.1 mph24.2 mph0.01 inRainLight Rain
6:35 AM64.4 °F0.0 °F29.66 in10.0 miNNE (20°)10.4 mph0.02 inRainLight Rain
6:48 AM62.6 °F0.0 °F29.66 in6.0 miNorth (10°)10.4 mph0.03 inRainLight Rain
6:53 AM63.0 °F0.0 °F29.66 in7.0 miNorth (10°)10.4 mph0.03 inRainLight Rain
7:53 AM62.1 °F0.0 °F29.68 in10.0 miNorth (360°)9.2 mph0.01 inMostly Cloudy
8:53 AM63.0 °F0.0 °F29.70 in10.0 miNNW (340°)10.4 mph19.6 mphOvercast
9:53 AM66.9 °F0.0 °F29.72 in10.0 miNorth (350°)9.2 mphMostly Cloudy
10:53 AM71.1 °F59.0 °F66 %29.72 in10.0 miNorth (360°)12.7 mph19.6 mphClear
11:53 AM73.9 °F55.9 °F53 %29.75 in10.0 miNNW (340°)13.8 mph21.9 mphClear
12:53 PM75.0 °F54.0 °F48 %29.76 in10.0 miNNW (330°)18.4 mph24.2 mphPartly Cloudy
1:53 PM75.9 °F54.0 °F46 %29.77 in10.0 miNNW (340°)13.8 mph21.9 mphPartly Cloudy
2:53 PM78.1 °F55.9 °F46 %29.79 in10.0 miNorth (360°)15.0 mph21.9 mphClear
3:53 PM78.1 °F55.0 °F45 %29.80 in10.0 miNorth (360°)16.1 mph26.5 mphPartly Cloudy
4:53 PM77.0 °F54.0 °F45 %29.81 in10.0 miNNE (20°)16.1 mph21.9 mphClear
5:53 PM77.0 °F55.0 °F47 %29.82 in10.0 miNorth (350°)10.4 mphPartly Cloudy
6:53 PM73.0 °F54.0 °F51 %29.83 in10.0 miNorth (350°)10.4 mphScattered Clouds
7:53 PM72.0 °F57.0 °F59 %29.85 in10.0 miNNW (340°)8.1 mphMostly Cloudy
8:53 PM71.1 °F57.9 °F63 %29.87 in10.0 miNNW (340°)6.9 mphMostly Cloudy
9:53 PM68.0 °F59.0 °F73 %29.88 in10.0 miNorth (350°)5.8 mphPartly Cloudy
10:53 PM66.9 °F57.9 °F73 %29.90 in10.0 miNorth (350°)5.8 mphPartly Cloudy
11:53 PM64.9 °F59.0 °F81 %29.93 in10.0 miNNW (340°)8.1 mph0.00 inOvercast
Hourly data recorded from KARB, located miles away from Ann Arbor, Michigan







STORIES FROM OUR PARTNERS